Wind_Speed
6 6 7 7 7 7 6 5 5 5 5 5 5 5 6 6 6 7 7 7 6 7 8 8 8 9 9 9 9 8 8 9 9 10 10 11 12 13 14 14 14 15 16
7 7 7 7 7 7 6 5 5 5 5 5 5 5 5 5 6 6 6 6 7 7 8 8 8 8 9 9 9 9 9 9 10 11 12 12 13 14 14 15 16 17 18
6 7 6 6 6 7 6 6 6 6 7 7 6 5 5 5 6 6 6 6 7 8 8 8 9 9 8 9 9 9 10 10 11 12 13 14 14 15 16 17 18 19 19
6 6 6 7 7 7 7 7 6 6 7 7 6 7 6 6 7 7 7 8 8 8 8 8 8 8 9 10 10 10 11 12 13 14 14 15 16 17 18 19 20 20 21
6 6 7 7 7 8 8 7 7 8 8 7 7 7 7 8 8 8 8 8 8 9 9 9 10 10 10 11 12 12 13 14 15 15 16 17 17 18 19 20 21 22 23
7 8 7 7 8 8 9 9 9 8 8 8 8 9 9 9 9 9 9 10 10 10 10 10 10 11 11 12 14 15 15 16 16 17 18 19 20 20 21 22 23 24 24
9 8 8 8 8 9 9 9 9 9 9 10 10 10 10 10 10 10 10 11 12 12 12 12 13 13 14 14 15 16 17 17 18 18 19 20 22 22 23 24 25 25 26
10 10 9 9 10 9 9 9 9 9 10 11 11 11 11 11 11 11 12 13 13 13 14 14 15 15 15 16 17 17 18 19 19 20 21 22 23 23 24 25 26 27 27
11 11 11 11 10 10 10 10 10 10 11 11 11 12 12 12 12 13 13 14 14 15 16 16 16 17 17 18 19 19 20 20 20 21 22 23 24 25 26 27 27 28 28
13 12 12 12 12 12 11 12 12 12 12 12 12 13 13 13 13 14 15 15 16 16 17 18 19 19 19 20 20 21 21 22 23 23 24 24 25 26 27 28 29 29 29
14 14 14 13 13 14 14 14 13 14 14 14 14 14 14 15 15 16 16 17 17 18 19 20 20 21 22 22 22 22 22 23 24 25 25 26 27 27 28 29 29 30 31
16 15 15 15 15 15 16 16 16 16 16 16 16 16 17 17 17 17 18 18 19 20 20 21 22 23 23 23 23 24 24 25 26 26 27 28 28 29 29 30 30 31 32
17 17 17 17 17 18 18 18 18 18 18 18 18 18 19 19 20 20 20 20 20 21 22 23 24 24 24 25 25 26 27 27 28 28 29 29 30 31 31 31 31 32 33
19 19 19 19 19 19 19 19 20 20 20 20 20 20 21 21 21 21 21 21 22 23 23 24 25 26 26 27 27 27 28 29 29 30 30 31 31 32 32 33 33 34 35
21 21 21 21 21 21 21 21 21 22 22 22 22 22 22 22 22 22 22 24 24 25 25 26 27 28 28 28 28 29 30 30 30 31 31 32 32 33 33 34 35 36 37
22 22 22 22 23 23 23 22 23 24 23 23 23 23 23 24 24 24 25 25 26 27 28 28 29 29 29 29 30 30 31 31 31 32 33 33 34 34 35 36 37 37 37
24 24 24 24 24 24 24 24 24 25 25 25 25 25 26 26 27 27 27 28 28 29 29 29 29 29 30 30 30 31 31 32 32 33 34 34 35 36 36 37 37 37 38
25 25 25 25 25 25 25 25 26 26 26 26 26 26 27 28 28 29 29 29 29 30 29 29 30 30 30 31 31 32 32 33 34 34 35 35 36 37 37 37 38 38 39
26 26 26 26 26 26 26 27 27 27 27 27 27 27 28 28 28 29 29 30 30 30 30 30 30 30 31 31 32 33 34 34 35 35 36 37 37 37 37 38 39 39 39
28 28 27 27 27 27 28 28 28 28 29 29 29 29 29 29 29 29 29 30 30 31 31 31 31 31 32 32 33 34 35 35 36 37 37 37 37 38 38 39 39 39 39
28 28 28 28 29 29 29 29 29 29 29 29 29 29 30 30 30 30 30 31 31 31 31 31 31 32 32 33 34 35 36 36 37 38 38 38 38 38 39 39 39 40 40
29 29 29 30 30 29 29 29 29 29 29 29 29 30 30 30 31 31 31 31 32 32 32 32 33 33 33 34 35 35 36 37 37 38 39 39 39 39 39 39 39 39 39
30 30 30 30 30 30 30 29 29 29 29 29 29 30 31 31 32 32 31 31 32 32 33 33 33 34 35 36 36 36 37 37 37 38 38 38 38 38 37 38 38 38 39
30 30 30 30 30 30 30 30 30 30 30 30 31 32 32 32 33 32 32 32 31 32 32 33 34 35 35 35 36 36 37 37 37 37 36 36 36 36 36 36 37 38 38
31 31 31 31 31 31 31 31 31 31 31 32 32 32 33 33 32 32 31 31 31 32 32 33 34 34 35 35 35 36 36 37 37 36 36 36 36 36 36 36 36 37 38
33 32 32 32 32 32 31 31 32 32 32 32 32 32 32 32 32 32 31 31 31 32 32 32 33 34 35 35 36 36 36 36 36 35 35 35 36 36 35 35 35 36 37
Wind_Direction
266 265 263 262 259 258 259 255 253 254 260 266 271 277 279 280 282 283 281 277 278 281 282 283 282 278 278 277 278 280 279 279 282 286 288 290 292 293 295 294 293 294 294
266 263 263 261 259 256 255 253 257 252 256 266 276 279 281 285 287 290 286 280 279 282 284 287 286 284 280 280 280 280 279 280 283 286 289 291 293 294 295 294 294 294 294
267 263 256 254 257 256 258 256 257 257 259 266 270 271 277 285 289 287 284 285 290 289 287 288 289 286 283 282 281 281 282 283 286 288 290 294 296 295 294 293 293 294 295
269 263 253 253 258 262 262 257 260 266 267 267 269 272 278 282 288 284 281 287 292 291 290 290 291 289 285 285 286 286 285 286 287 289 290 291 293 294 295 295 296 297 297
265 260 254 254 257 261 263 261 266 271 269 271 273 275 282 284 286 289 287 288 290 290 287 286 286 287 287 288 288 287 287 288 290 291 292 292 292 293 295 296 297 298 299
264 258 257 257 260 262 261 262 268 269 270 271 271 273 279 282 285 288 285 286 290 291 289 287 286 287 289 292 291 289 289 290 291 292 293 293 293 294 295 296 296 297 297
260 264 263 258 261 263 263 264 265 267 269 272 274 279 280 280 282 282 283 285 287 288 287 286 286 286 287 289 290 290 290 290 292 293 295 295 295 295 296 297 298 298 298
259 261 262 264 265 265 264 265 268 268 272 272 273 279 281 281 282 283 283 283 285 285 286 286 286 288 290 291 291 292 293 293 293 294 296 297 297 297 298 299 299 299 299
259 261 261 263 264 263 261 265 267 271 274 275 278 280 282 283 283 283 286 287 286 286 285 286 288 290 291 290 292 293 293 293 294 295 296 297 297 297 299 299 299 299 299
257 259 260 260 258 258 261 265 270 273 274 277 278 279 281 283 285 284 285 287 288 287 287 287 289 291 292 291 291 292 293 293 293 294 295 296 297 298 299 299 299 299 299
256 255 255 257 257 257 261 266 269 273 275 278 278 279 281 283 285 286 286 287 288 289 288 288 288 290 291 291 291 291 292 293 294 294 294 297 298 298 299 299 299 300 300
256 255 255 258 261 262 264 265 268 272 275 276 278 279 281 282 283 286 288 289 288 288 289 289 289 290 292 292 291 291 291 293 293 294 294 295 297 297 298 298 299 300 301
257 257 258 259 260 263 265 266 270 273 275 274 274 277 280 282 283 285 286 288 289 290 290 289 288 289 291 291 292 292 292 291 292 293 294 295 296 297 298 298 298 299 301
258 258 259 260 262 265 266 267 269 271 273 274 274 276 279 282 283 285 285 287 289 290 289 289 289 289 289 290 291 291 292 292 292 292 294 294 295 296 297 297 298 298 299
259 258 259 261 263 265 267 269 270 271 272 274 275 277 279 280 282 283 285 286 288 288 289 289 289 289 290 290 290 291 293 294 294 293 294 294 294 295 297 298 298 299 300
259 258 259 261 264 266 267 268 270 272 273 274 277 279 281 281 281 282 284 285 286 287 288 288 289 290 290 290 291 292 293 295 295 295 295 294 294 295 296 298 299 299 299
260 261 263 264 265 266 268 269 272 273 274 275 277 278 280 281 283 283 284 286 287 288 288 289 290 291 291 290 290 292 293 294 294 295 296 296 296 297 297 298 298 299 300
262 263 265 266 265 267 269 271 272 274 275 275 277 278 279 280 282 283 284 287 288 289 290 290 291 291 292 292 291 291 292 292 293 294 294 295 296 297 297 298 298 299 300
264 265 266 265 265 268 270 270 272 273 274 276 277 277 279 280 282 283 284 286 288 289 290 290 291 292 293 293 293 293 293 293 294 294 295 296 296 296 296 298 299 300 301
265 266 266 266 268 269 269 270 272 274 275 276 278 278 279 280 281 282 283 285 287 288 290 291 292 293 294 294 294 294 294 294 295 295 295 296 297 297 297 299 299 300 301
265 266 266 268 269 269 269 271 273 275 276 277 278 279 280 281 282 283 283 285 286 288 289 291 292 293 294 294 295 296 295 295 296 296 296 296 296 296 297 297 299 300 300
265 267 268 270 270 270 270 270 271 274 275 277 277 279 281 283 284 284 283 284 285 286 288 290 291 292 294 295 296 297 296 296 296 297 297 296 296 297 297 298 299 300 301
266 268 269 269 270 271 271 272 273 274 276 277 278 280 282 284 284 285 283 283 284 286 287 290 292 294 295 296 296 297 297 297 298 299 299 298 298 298 298 298 299 300 301
265 267 269 271 271 272 273 274 274 275 276 277 278 280 282 283 284 284 284 283 283 285 287 290 292 295 297 296 296 297 298 299 299 299 299 299 299 300 300 299 299 300 301
265 266 268 270 271 273 274 275 275 276 277 278 279 280 282 283 284 284 285 284 284 285 288 290 293 295 296 296 296 297 299 300 300 300 299 298 299 299 300 300 301 302 302
264 266 268 269 271 273 275 275 276 277 278 279 280 280 282 282 283 285 285 284 284 286 288 291 293 294 295 296 296 297 299 300 300 299 299 299 299 299 301 302 303 304 304
Height
5843 5843 5843 5843 5844 5844 5844 5844 5844 5844 5844 5844 5844 5844 5843 5843 5843 5843 5842 5842 5842 5841 5841 5840 5840 5839 5838 5838 5837 5836 5836 5835 5835 5834 5833 5831 5830 5829 5827 5826 5824 5823 5821
5841 5841 5841 5841 5841 5842 5842 5842 5842 5843 5843 5842 5842 5842 5842 5842 5841 5841 5841 5840 5840 5839 5839 5838 5837 5837 5836 5835 5834 5834 5833 5832 5832 5831 5830 5828 5827 5825 5824 5822 5821 5819 5817
5839 5839 5839 5839 5840 5840 5840 5840 5841 5841 5841 5841 5841 5841 5841 5840 5840 5839 5839 5838 5838 5837 5836 5836 5835 5834 5833 5832 5832 5831 5830 5829 5828 5827 5826 5825 5823 5822 5820 5818 5816 5814 5812
5837 5837 5837 5838 5838 5838 5838 5839 5839 5839 5839 5839 5839 5839 5839 5838 5838 5837 5837 5836 5836 5835 5834 5833 5832 5832 5831 5830 5829 5828 5827 5826 5825 5824 5822 5821 5819 5817 5816 5814 5812 5809 5807
5835 5835 5835 5836 5836 5836 5837 5837 5837 5837 5837 5837 5837 5837 5836 5836 5836 5835 5835 5834 5833 5832 5832 5831 5830 5829 5828 5827 5826 5825 5824 5822 5821 5819 5818 5816 5815 5813 5811 5809 5807 5804 5802
5833 5833 5833 5834 5834 5834 5835 5835 5835 5835 5835 5835 5835 5834 5834 5834 5833 5833 5832 5831 5831 5830 5829 5828 5827 5826 5825 5824 5822 5821 5820 5818 5817 5815 5813 5811 5809 5807 5805 5803 5801 5799 5796
5831 5831 5831 5831 5832 5832 5832 5832 5832 5832 5832 5832 5832 5831 5831 5831 5830 5830 5829 5828 5828 5827 5825 5824 5823 5822 5821 5820 5818 5817 5815 5813 5812 5810 5808 5806 5804 5802 5799 5797 5794 5792 5789
5828 5828 5828 5828 5829 5829 5829 5829 5829 5829 5829 5829 5829 5828 5828 5827 5827 5826 5826 5825 5824 5823 5822 5820 5819 5818 5817 5815 5814 5812 5810 5808 5807 5805 5803 5800 5798 5796 5793 5791 5788 5785 5782
5824 5825 5825 5825 5826 5826 5826 5826 5826 5826 5826 5825 5825 5824 5824 5824 5823 5822 5822 5821 5820 5818 5817 5816 5815 5813 5812 5810 5808 5807 5805 5803 5801 5799 5797 5794 5792 5789 5786 5784 5781 5778 5775
5821 5821 5821 5822 5822 5822 5823 5823 5822 5822 5822 5822 5821 5821 5820 5820 5819 5818 5817 5816 5815 5814 5812 5811 5810 5808 5806 5804 5803 5801 5799 5797 5795 5792 5790 5788 5785 5782 5779 5776 5773 5770 5767
5816 5817 5817 5817 5818 5818 5818 5819 5818 5818 5818 5817 5817 5816 5816 5815 5814 5814 5812 5811 5810 5809 5807 5806 5804 5802 5801 5798 5796 5795 5792 5790 5788 5785 5783 5781 5778 5775 5772 5769 5765 5762 5759
5812 5812 5812 5813 5813 5814 5814 5814 5814 5814 5813 5813 5812 5812 5811 5810 5809 5808 5807 5806 5804 5803 5801 5800 5798 5796 5794 5792 5790 5788 5786 5783 5781 5778 5776 5773 5770 5767 5764 5761 5757 5754 5750
5807 5807 5808 5808 5808 5808 5809 5808 5808 5808 5808 5807 5807 5806 5805 5804 5803 5802 5801 5800 5798 5797 5795 5793 5791 5789 5787 5785 5783 5780 5778 5775 5773 5770 5768 5765 5762 5759 5755 5752 5749 5745 5741
5801 5801 5802 5802 5802 5803 5803 5802 5802 5802 5802 5801 5801 5800 5799 5798 5797 5796 5794 5793 5792 5790 5788 5786 5784 5782 5779 5777 5775 5772 5770 5767 5764 5762 5759 5756 5753 5749 5746 5743 5739 5736 5732
5795 5795 5796 5796 5796 5796 5796 5796 5796 5796 5795 5795 5794 5793 5793 5792 5790 5789 5788 5786 5784 5782 5780 5778 5776 5774 5771 5769 5766 5764 5761 5758 5755 5752 5749 5746 5743 5740 5736 5733 5729 5725 5721
5788 5788 5789 5789 5789 5789 5789 5789 5788 5788 5788 5787 5787 5786 5785 5784 5783 5782 5780 5778 5776 5774 5772 5770 5767 5765 5762 5760 5757 5755 5752 5749 5746 5742 5739 5736 5733 5730 5726 5722 5719 5715 5711
5781 5781 5781 5781 5782 5782 5782 5781 5781 5781 5780 5779 5779 5778 5777 5776 5775 5773 5772 5770 5767 5765 5763 5760 5758 5756 5753 5751 5748 5745 5742 5739 5736 5733 5729 5726 5722 5719 5715 5712 5708 5704 5700
5772 5773 5773 5774 5774 5774 5774 5773 5773 5773 5772 5771 5771 5770 5768 5767 5766 5764 5762 5760 5758 5756 5753 5751 5749 5746 5744 5741 5738 5735 5732 5729 5726 5722 5719 5715 5711 5708 5704 5701 5697 5693 5688
5764 5764 5765 5765 5765 5765 5765 5765 5764 5764 5763 5763 5762 5761 5759 5758 5756 5755 5753 5751 5749 5746 5744 5741 5739 5736 5734 5731 5728 5725 5722 5718 5715 5711 5708 5704 5700 5696 5693 5689 5685 5681 5677
5755 5755 5756 5756 5756 5756 5756 5755 5755 5754 5754 5753 5752 5751 5750 5748 5747 5745 5743 5741 5739 5736 5734 5732 5729 5726 5723 5720 5717 5714 5710 5707 5704 5700 5696 5693 5689 5685 5681 5677 5673 5669 5665
5745 5746 5746 5746 5746 5746 5746 5746 5745 5744 5744 5743 5742 5741 5739 5738 5736 5735 5733 5731 5729 5726 5724 5721 5719 5716 5713 5710 5706 5703 5699 5695 5692 5688 5684 5680 5677 5673 5669 5665 5661 5657 5653
5736 5736 5737 5736 5736 5736 5736 5736 5735 5734 5734 5733 5732 5730 5729 5727 5725 5724 5722 5720 5718 5716 5713 5711 5708 5705 5702 5699 5695 5692 5688 5684 5680 5676 5672 5668 5664 5660 5657 5653 5649 5645 5641
5726 5726 5726 5726 5726 5726 5726 5725 5725 5724 5723 5722 5721 5720 5718 5717 5715 5712 5711 5709 5707 5705 5702 5700 5697 5694 5691 5688 5684 5680 5676 5672 5668 5664 5660 5656 5652 5649 5645 5641 5638 5634 5630
5715 5716 5716 5716 5716 5716 5715 5715 5714 5713 5713 5712 5710 5709 5707 5705 5703 5701 5699 5698 5696 5694 5691 5689 5686 5683 5680 5676 5672 5669 5665 5661 5657 5652 5649 5645 5641 5637 5634 5630 5626 5622 5618
5704 5705 5705 5706 5705 5705 5704 5704 5703 5702 5701 5700 5699 5698 5696 5694 5692 5690 5688 5686 5685 5683 5681 5678 5675 5672 5668 5665 5661 5657 5653 5649 5645 5641 5637 5634 5630 5627 5623 5619 5615 5611 5607
5693 5694 5694 5694 5694 5694 5693 5692 5692 5691 5690 5689 5688 5686 5684 5683 5681 5679 5677 5675 5674 5672 5669 5667 5664 5661 5657 5653 5650 5646 5642 5638 5634 5630 5626 5623 5619 5616 5612 5609 5605 5600 5596